[[{"header":{"parameterUnit":"m.s-1","parameterCategory":1,"la1":30.2991,"la2":30.254,"lo1":-89.0895,"lo2":-89.0444,"dy":0.0017,"dx":0.0017,"nx":28,"ny":28,"refTime":"2023-08-02T21:00:00:Z","depth":0,"parameterNumber":2,"parameterNumberName":"U-component_of_WINDS"},"data":[0,0,0,0,0,0,0,0,0,0,0,0,0,0,0,0,0,0,0,0,0,0,0,0,0,0,0,0,0,0,0,0,0,0,0,0,0,0,0,0,0,0,0,0,0,0,0,0,0,0,0,0,0,0,0,0,0,0,1.386,1.386,0,1.3868,1.3868,1.3868,1.3817,1.3816,1.3815,1.3813,1.3823,1.3825,1.3826,0,0,0,0,0,0,0,0,0,0,0,0,0,1.3801,1.3803,1.386,1.386,1.386,1.3868,1.3868,1.3868,1.3818,1.3816,1.3814,1.3812,1.3822,1.3824,1.3826,0,0,0,0,0,0,0,0,0,0,0,0,0,1.382,1.3803,1.386,1.3836,1.3834,1.3868,1.3868,1.3868,1.3818,1.3816,1.3814,1.3812,1.3822,1.3824,1.3827,1.3885,0,0,1.3834,1.3835,0,0,0,0,0,0,0,0,1.3819,1.3822,1.3839,1.3838,1.3835,1.3839,1.3851,1.3874,1.3819,1.3824,1.3813,1.3811,1.383,1.3832,1.3838,1.3885,1.3886,1.3834,1.3836,1.3837,1.3837,0,0,0,0,0,0,0,1.3818,1.3821,1.3863,1.384,1.3837,1.3825,1.3825,1.3855,1.3839,1.3823,1.382,1.3821,1.3829,1.3836,1.3838,1.3886,1.3834,1.3836,1.3838,1.3839,1.3979,1.3981,0,0,0,0,0,0,1.3819,1.3821,1.3863,1.3863,1.3822,1.3828,1.3828,1.384,1.3839,1.3836,1.3823,1.3819,1.3833,1.3835,1.3838,1.3904,1.3837,1.3839,1.384,1.3977,1.398,1.3982,0,0,0,0,0,0,1.3818,1.3824,1.3863,1.3841,1.3845,1.3831,1.3845,1.3842,1.3849,1.3839,1.3836,1.3833,1.3831,1.3835,1.3873,1.3904,1.384,1.3842,1.3974,1.3978,1.3981,1.4039,0,0,0,0,0,0,1.3817,1.3824,1.3846,1.3842,1.3846,1.3897,1.3847,1.3843,1.3853,1.3847,1.3847,1.3845,1.383,1.387,1.3875,1.3906,1.3844,1.3971,1.3976,1.398,1.4034,1.4044,1.4052,0,0,0,0,0,1.3815,1.3862,1.3847,1.3852,1.3873,1.3899,1.3902,1.3883,1.3856,1.3877,1.3871,1.3845,1.39,1.3874,1.388,1.3912,1.3969,1.3974,1.3979,1.403,1.4042,1.4052,0,0,0,0,0,0,1.3871,1.3861,1.3844,1.3892,1.3897,1.3891,1.3917,1.3896,1.3909,1.3904,1.388,1.388,1.3922,1.3921,1.3892,1.3968,1.393,1.3937,1.3966,1.3977,1.3986,1.3985,1.3846,0,0,0,0,0,1.3889,1.391,1.3901,1.3944,1.3947,1.3932,1.3942,1.3927,1.3931,1.3933,1.3929,1.3935,1.3953,1.3966,1.3982,1.4034,1.4032,1.4059,1.4068,1.4076,1.4081,1.4107,1.4118,1.3999,1.3999,1.3999,0,0,1.3926,1.3923,1.3938,1.3955,1.3957,1.3979,1.3934,1.396,1.3976,1.3937,1.3972,1.397,1.3974,1.4019,1.4039,1.402,1.4114,1.4082,1.4088,1.409,1.4113,1.4124,1.4134,1.4002,1.4002,1.4001,0,0,1.4004,1.4005,1.404,1.4042,1.4045,1.4035,1.4043,1.404,1.4037,1.4071,1.4042,1.4062,1.4094,1.4098,1.4104,1.4183,1.4159,1.4189,1.4236,1.4261,1.427,1.4278,1.4304,1.4314,1.4195,1.4195,1.4195,0,1.405,1.4082,1.406,1.4088,1.4095,1.4061,1.4095,1.4099,1.4108,1.4113,1.4092,1.4131,1.4132,1.4176,1.4195,1.4202,1.421,1.4188,1.427,1.4278,1.4286,1.431,1.432,1.4198,1.4198,1.4198,1.4197,0,1.4137,1.4159,1.4187,1.4195,1.4206,1.4237,1.422,1.4234,1.4218,1.4209,1.4245,1.4244,1.4259,1.4269,1.4254,1.4311,1.4298,1.4275,1.4236,1.4301,1.4323,1.4333,1.4203,1.4202,1.4201,1.42,0,0,1.425,1.4245,1.4255,1.4257,1.4258,1.4275,1.4304,1.4318,1.4329,1.4337,1.4359,1.4387,1.4364,1.4371,1.4357,1.4379,1.4439,1.4352,1.4352,1.4366,1.4499,1.4516,1.4527,1.4424,1.4426,1.4427,1.4498,0,1.4325,1.4373,1.4354,1.4404,1.4424,1.4391,1.4416,1.4419,1.4412,1.4428,1.4421,1.444,1.441,1.4413,1.4434,1.4427,1.4465,1.4422,1.4444,1.4445,1.4442,1.4539,1.4557,1.4624,1.4507,1.4509,1.451,0,1.4418,1.4427,1.4479,1.4474,1.4482,1.4505,1.4514,1.4531,1.4533,1.4527,1.4534,1.4514,1.4542,1.4505,1.4542,1.4514,1.4522,1.452,1.4522,1.4522,1.448,1.454,1.4645,1.4654,1.4524,1.4523,1.4522,0,1.4493,1.4519,1.4552,1.4555,1.4551,1.4568,1.4567,1.4567,1.4576,1.4585,1.4591,1.4604,1.461,1.4621,1.4605,1.458,1.4644,1.4606,1.4638,1.4639,1.4652,1.4651,1.4758,1.4661,1.4661,1.4661,1.466,0,1.4577,1.4609,1.4585,1.4606,1.464,1.4619,1.4654,1.465,1.465,1.4669,1.4643,1.4661,1.4639,1.4656,1.4644,1.4675,1.4679,1.4674,1.467,1.4675,1.4676,1.4679,1.4673,1.4663,1.4663,1.4662,1.4662,0,1.4666,1.4651,1.4685,1.4678,1.4677,1.4702,1.4696,1.4715,1.4706,1.473,1.4735,1.4721,1.4739,1.4724,1.4742,1.4734,1.4775,1.4766,1.4774,1.477,1.4802,1.4799,1.4913,1.4927,1.4823,1.4824,1.4825,0,1.4719,1.4743,1.4738,1.4748,1.4748,1.4766,1.4774,1.4754,1.4763,1.4767,1.4785,1.48,1.4811,1.4841,1.4833,1.4846,1.4835,1.4875,1.4837,1.4841,1.4833,1.4831,1.4832,1.4882,1.4883,1.4884,1.4885,0,1.4815,1.4806,1.4819,1.4829,1.4839,1.4846,1.4852,1.4862,1.4841,1.4853,1.487,1.4879,1.4896,1.4911,1.4921,1.492,1.4899,1.4897,1.4904,1.4909,1.4911,1.4908,1.4792,1.4894,1.4893,1.4892,1.4892,1.4891,1.4887,1.4905,1.4904,1.4918,1.492,1.4925,1.4941,1.4934,1.4947,1.4959,1.4946,1.4967,1.4968,1.4979,1.4981,1.4996,1.498,1.4992,1.4994,1.4997,1.5,1.4911,1.4998,1.4998,1.4998,1.4998,1.4997,0,1.4979,1.4976,1.499,1.4997,1.5008,1.4987,1.4991,1.5002,1.502,1.5022,1.5033,1.5052,1.5066,1.5059,1.5071,1.5085,1.5075,1.5088,1.5086,1.5086,1.5016,1.5006,1.5096,1.5096,1.5096,1.5096,1.5096,1.5096,1.5029,1.5058,1.5049,1.5079,1.5076,1.5095,1.5099,1.5103,1.5104,1.5126,1.5137,1.5132,1.5131,1.5142,1.5154,1.5151,1.5156,1.5173,1.5167,1.5101,1.5091,1.5082,1.5073,1.5175,1.5175,1.5235,1.5236,1.5236]},{"header":{"parameterUnit":"m.s-1","parameterCategory":1,"la1":30.2991,"la2":30.254,"lo1":-89.0895,"lo2":-89.0444,"dy":0.0017,"dx":0.0017,"nx":28,"ny":28,"refTime":"2023-08-02T21:00:00:Z","depth":0,"parameterNumber":3,"parameterNumberName":"V-component_of_WINDS"},"data":[0,0,0,0,0,0,0,0,0,0,0,0,0,0,0,0,0,0,0,0,0,0,0,0,0,0,0,0,0,0,0,0,0,0,0,0,0,0,0,0,0,0,0,0,0,0,0,0,0,0,0,0,0,0,0,0,0,0,0.2358,0.2359,0,0.2432,0.2433,0.2434,0.2468,0.2468,0.2468,0.2468,0.2548,0.2551,0.2553,0,0,0,0,0,0,0,0,0,0,0,0,0,0.2249,0.2251,0.2358,0.2359,0.236,0.2432,0.2433,0.2434,0.2468,0.2468,0.2468,0.2468,0.2548,0.255,0.2553,0,0,0,0,0,0,0,0,0,0,0,0,0,0.2307,0.2252,0.2358,0.2385,0.2388,0.2432,0.2433,0.2434,0.2468,0.2468,0.2468,0.2468,0.2547,0.255,0.2553,0.2576,0,0,0.2564,0.2565,0,0,0,0,0,0,0,0,0.2304,0.2311,0.238,0.2383,0.2387,0.2441,0.2424,0.2482,0.2468,0.2438,0.2468,0.2468,0.2513,0.2519,0.2533,0.258,0.2583,0.2564,0.2566,0.2567,0.2568,0,0,0,0,0,0,0,0.23,0.2308,0.2387,0.2381,0.2385,0.2395,0.2403,0.2436,0.2475,0.2441,0.2443,0.2451,0.2515,0.253,0.2536,0.2585,0.2564,0.2567,0.2569,0.257,0.2654,0.2655,0,0,0,0,0,0,0.2291,0.2305,0.2385,0.239,0.2344,0.2397,0.2406,0.2424,0.2475,0.2483,0.2452,0.2453,0.2525,0.2532,0.2539,0.2569,0.2567,0.257,0.2572,0.2654,0.2655,0.2655,0,0,0,0,0,0,0.2288,0.2298,0.2382,0.2348,0.2359,0.2399,0.2418,0.2425,0.2441,0.2483,0.2491,0.2459,0.2525,0.2534,0.2566,0.2572,0.2572,0.2575,0.2654,0.2654,0.2655,0.263,0,0,0,0,0,0,0.2285,0.2297,0.2305,0.2348,0.2361,0.2407,0.2419,0.2427,0.2446,0.2448,0.2493,0.25,0.2525,0.2561,0.257,0.2577,0.2577,0.2654,0.2654,0.2655,0.263,0.2629,0.2629,0,0,0,0,0,0.2281,0.2295,0.2305,0.2314,0.2372,0.2407,0.2415,0.2443,0.2446,0.2455,0.2483,0.2499,0.257,0.2564,0.2574,0.2582,0.2653,0.2654,0.2655,0.2631,0.263,0.2629,0,0,0,0,0,0,0.2253,0.2302,0.2313,0.2341,0.237,0.2413,0.2425,0.244,0.247,0.2471,0.2505,0.2515,0.2545,0.2567,0.256,0.2608,0.2613,0.2616,0.2592,0.2591,0.259,0.2585,0.258,0,0,0,0,0,0.225,0.2274,0.2315,0.2337,0.235,0.2385,0.2402,0.242,0.2452,0.2465,0.2495,0.2526,0.2556,0.2575,0.2604,0.2634,0.2645,0.2644,0.2643,0.2642,0.2644,0.2662,0.2663,0.2657,0.2657,0.2657,0,0,0.2245,0.2274,0.2287,0.2332,0.2356,0.2381,0.2395,0.2421,0.2441,0.2469,0.2502,0.2525,0.2562,0.2593,0.2608,0.2613,0.2648,0.2643,0.2642,0.2645,0.2663,0.2664,0.2664,0.2657,0.2657,0.2657,0,0,0.2247,0.2271,0.2292,0.2316,0.2352,0.2375,0.238,0.2421,0.2437,0.247,0.2492,0.2517,0.2567,0.2592,0.2612,0.2624,0.2641,0.2633,0.2629,0.2646,0.2646,0.2647,0.2652,0.2653,0.2635,0.2635,0.2635,0,0.2236,0.2273,0.2301,0.2325,0.2345,0.237,0.2392,0.2415,0.2459,0.2473,0.2476,0.254,0.2567,0.2605,0.2608,0.2623,0.263,0.2629,0.2644,0.2645,0.2646,0.2651,0.2653,0.2634,0.2634,0.2634,0.2634,0,0.2258,0.2283,0.2296,0.2337,0.2358,0.2381,0.2413,0.2431,0.2448,0.2471,0.2505,0.2538,0.2575,0.2585,0.2603,0.2626,0.2627,0.2637,0.2643,0.2645,0.265,0.2652,0.2632,0.2633,0.2633,0.2633,0,0,0.2245,0.2301,0.2305,0.2324,0.2366,0.2387,0.2412,0.2447,0.2462,0.2492,0.2515,0.2556,0.2565,0.2588,0.2608,0.2623,0.2632,0.2631,0.2633,0.263,0.266,0.2653,0.2655,0.2642,0.2643,0.2643,0.2657,0,0.2254,0.2298,0.2323,0.2357,0.2382,0.2407,0.2429,0.2458,0.248,0.2505,0.2531,0.256,0.2569,0.2583,0.2599,0.2627,0.2638,0.2626,0.2665,0.2666,0.2655,0.2658,0.265,0.2662,0.266,0.266,0.266,0,0.227,0.2298,0.2334,0.2373,0.2385,0.2403,0.2438,0.2461,0.2495,0.2511,0.2535,0.2556,0.2584,0.2588,0.2629,0.262,0.2637,0.2654,0.2655,0.266,0.2663,0.2663,0.2666,0.2668,0.2664,0.2664,0.2663,0,0.2257,0.2305,0.2332,0.2348,0.2394,0.2407,0.2428,0.2461,0.2481,0.2511,0.2524,0.2558,0.2577,0.2603,0.2633,0.2633,0.2671,0.2677,0.2685,0.2685,0.2693,0.2692,0.2699,0.2703,0.2703,0.2703,0.2703,0,0.2265,0.2286,0.2327,0.2344,0.2369,0.2399,0.2423,0.2446,0.2476,0.2499,0.2523,0.2544,0.2582,0.2608,0.2632,0.2662,0.267,0.2685,0.2691,0.2683,0.2681,0.2695,0.2695,0.2703,0.2703,0.2703,0.2703,0,0.2255,0.2284,0.2315,0.2357,0.2368,0.2384,0.242,0.2439,0.2462,0.2491,0.25,0.2538,0.257,0.2602,0.2646,0.2662,0.2692,0.27,0.268,0.2683,0.269,0.2689,0.2707,0.2711,0.2712,0.2711,0.2711,0,0.2258,0.2275,0.2317,0.2334,0.2353,0.238,0.2399,0.243,0.2449,0.2489,0.2503,0.2537,0.2566,0.2617,0.2649,0.2683,0.2692,0.2696,0.2698,0.2689,0.2693,0.2692,0.2694,0.2695,0.2695,0.2695,0.2695,0,0.226,0.2273,0.23,0.2332,0.2354,0.2381,0.2409,0.2421,0.2457,0.2479,0.2511,0.2533,0.2578,0.2612,0.2649,0.2672,0.269,0.2694,0.2698,0.269,0.2678,0.2685,0.2678,0.2693,0.2694,0.2694,0.2694,0.2694,0.2258,0.2274,0.2306,0.2335,0.2359,0.2385,0.2404,0.2429,0.2457,0.2494,0.2511,0.2544,0.2579,0.2631,0.2653,0.2681,0.2685,0.2691,0.2692,0.2693,0.2692,0.2673,0.2688,0.2688,0.2688,0.2688,0.2688,0,0.2262,0.2284,0.231,0.2347,0.2371,0.2384,0.2415,0.2434,0.2463,0.2493,0.252,0.2558,0.2591,0.2626,0.2661,0.2676,0.2685,0.2685,0.2684,0.2689,0.2685,0.2678,0.2677,0.2677,0.2677,0.2677,0.2677,0.2677,0.2266,0.2294,0.2311,0.2352,0.2375,0.2406,0.2423,0.2447,0.2471,0.2512,0.2539,0.2561,0.2593,0.2631,0.2662,0.2672,0.2684,0.2681,0.2693,0.2689,0.2689,0.269,0.2684,0.2683,0.2683,0.2695,0.2695,0.2695]}]]